Miscellaneous Local Product
Issued by NWS Hastings, NE

Home | Current Version | Previous Version | Text Only | Print | Product List | Glossary On
Versions: 1 2 3 4 5 6 7 8 9 10 11 12 13 14 15 16 17 18 19 20 21 22 23 24 25 26 27 28 29 30 31 32 33 34 35 36 37 38 39 40 41 42 43 44 45 46 47 48 49 50
000
AXUS43 KGID 300902
MISGRI

GID CWA HOURLY WEATHER ROUNDUP
NATIONAL WEATHER SERVICE HASTINGS NE
400 AM CDT TUE SEP 30 2014

NOTE: "FAIR" INDICATES FEW OR NO CLOUDS BELOW 12,000 FEET WITH NO
SIGNIFICANT WEATHER AND/OR OBSTRUCTIONS TO VISIBILITY.

...SOUTH CENTRAL NEBRASKA...

CITY           SKY/WX    TMP DP  RH WIND       PRES   REMARKS
GRAND ISLAND   CLOUDY    67  57  70 SE16G23   29.82F
HASTINGS       LGT RAIN  67  57  70 S12G20    29.83F
KEARNEY        CLOUDY    66  55  68 SE18      29.80F
ORD            CLOUDY    68  56  65 SE16G25   29.76F
YORK           MOCLDY    64  59  82 S10       29.86F
AURORA         CLOUDY    65  58  76 SE12G17   29.84F
LEXINGTON      LGT RAIN  64  58  82 SE13      29.77F
HOLDREGE       CLOUDY    67  55  64 S17G23    29.79F
HEBRON         CLOUDY    68  57  67 S10       29.87F

...NEBRASKA PANHANDLE...

CITY           SKY/WX    TMP DP  RH WIND       PRES   REMARKS
CHADRON        RAIN      54  53  97 CALM      29.47F FOG
ALLIANCE       NOT AVBL
SCOTTSBLUFF    LGT RAIN  50  48  93 W16G29    29.68F
SIDNEY         CLOUDY    50  45  83 W14G24    29.75F

...WESTERN AND NORTH CENTRAL NEBRASKA...

CITY           SKY/WX    TMP DP  RH WIND       PRES   REMARKS
VALENTINE      CLOUDY    61  57  87 SE17G25   29.68F
AINSWORTH      LGT RAIN  62  57  86 SE15G21   29.71F
ONEILL         CLOUDY    64  59  83 SE18      29.79F
BROKEN BOW     CLOUDY    66  56  70 S16G25    29.75F
IMPERIAL       PTCLDY    53  48  83 SW12      29.80R
NORTH PLATTE   MOCLDY    59  56  89 S12       29.74F
MCCOOK         PTCLDY    60  56  86 SW17G25   29.79R

...EASTERN NEBRASKA...

CITY           SKY/WX    TMP DP  RH WIND       PRES   REMARKS
NORFOLK        CLOUDY    62  59  90 E13       29.84F
SO SIOUX CITY  CLOUDY    59  56  89 E9        29.91F
TEKAMAH        MOCLDY    58  57  97 CALM      29.91F FOG
COLUMBUS       PTCLDY    63  55  77 E9        29.86F
ALBION         MOCLDY    62  56  80 SE6       29.83F
OMAHA EPPLEY   PTCLDY    64  59  83 SE7       29.91F
OFFUTT AFB     CLEAR     62  62 100 E8        29.90F
MILLARD        MOCLDY    65  60  84 E3        29.90F
LINCOLN        PTCLDY    67  58  72 SE8       29.87F
NEBRASKA CITY  PTCLDY    62  55  79 SE6       29.90F
BEATRICE       MOCLDY    66  59  79 SE7       29.89F
FALLS CITY     PTCLDY    61  58  90 SE6       29.90F

...NORTHERN KANSAS...

CITY           SKY/WX    TMP DP  RH WIND       PRES   REMARKS
GOODLAND       CLEAR     50  46  86 W7        29.87F
HILL CITY      CLOUDY    65  57  75 S12       29.82F
NORTON         CLOUDY    63  54  72 SE10      29.79
PHILLIPSBURG   MOCLDY    70  55  60 SE15G21   29.81F
SMITH CENTER   CLOUDY    68  55  64 SE17G23   29.84S
BELOIT         MOCLDY    68  57  68 S13       29.85S
HAYS           CLOUDY    68  54  60 S18       29.85F
RUSSELL        CLOUDY    68  56  65 S17G26    29.85S
CONCORDIA      MOCLDY    67  59  75 S16G24    29.87F
SALINA         PTCLDY    67  58  72 S10       29.88F
TOPEKA         CLEAR     63  60  90 NE5       29.92F



USA.gov is the U.S. government's official web portal to all federal, state and local government web resources and services.